Regional Weather Roundup
Issued by NWS Little Rock, AR

Home | Current Version | Previous Version | Graphics & Text | Print | Product List | Glossary On
Versions: 1 2 3 4 5 6 7 8 9 10 11 12 13 14 15 16 17 18 19 20 21 22 23 24 25 26 27 28 29 30 31 32 33 34 35 36 37 38 39 40 41 42 43 44 45 46 47 48 49 50
000
ASUS44 KLZK 030905
RWRLZK

WEATHER ROUNDUP FOR ARKANSAS
NATIONAL WEATHER SERVICE LITTLE ROCK AR
400 AM CDT SUN MAY 03 2015

NOTE: "FAIR" INDICATES FEW OR NO CLOUDS BELOW 12,000 FEET WITH NO
SIGNIFICANT WEATHER AND/OR OBSTRUCTIONS TO VISIBILITY.

ARZ001-003-010-029-031000-
NORTHWEST ARKANSAS

CITY           SKY/WX    TMP DP  RH WIND       PRES   REMARKS
FAYETTEVILLE   CLEAR     51  51 100 CALM      30.00F
FORT SMITH     CLEAR     58  52  80 NE5       29.98F
HARRISON       CLEAR     54  48  80 S3        30.02F
BENTONVILLE    CLEAR    N/A N/A N/A S5        29.99S
ROGERS         CLEAR     57  50  77 SE6       30.00S
SILOAM SPGS    CLEAR     57  46  67 S7        29.99S
HIGHFILL       CLEAR     56  48  74 S3        29.98S
$$

ARZ004-005-016-031000-
NORTH CENTRAL ARKANSAS

CITY           SKY/WX    TMP DP  RH WIND       PRES   REMARKS
BATESVILLE     CLEAR     59  43  55 S3        30.03S
FLIPPIN        CLEAR     57  46  67 S3        30.00F
MTN HOME       CLEAR     58  44  60 S7        30.01F
$$

ARZ040-041-031000-
WEST CENTRAL ARKANSAS

CITY           SKY/WX    TMP DP  RH WIND       PRES   REMARKS
MENA           CLEAR     52  50  93 CALM      30.03S
MOUNT IDA      CLEAR     52  49  89 CALM      30.00S
$$

ARZ009-017-025-026-028-031000-
NORTHEAST ARKANSAS

CITY           SKY/WX    TMP DP  RH WIND       PRES   REMARKS
CORNING          N/A     57  50  77 CALM      30.04S
JONESBORO      PTCLDY    48  47  96 CALM      30.04S
NEWPORT        CLEAR     55  49  80 CALM      30.05S
WALNUT RIDGE   MOCLDY    55  45  67 S7        30.03S
BLYTHEVILLE    CLEAR     57  49  74 S3        30.05S
$$

ARZ022-023-033-042-044-031000-
CENTRAL ARKANSAS

CITY           SKY/WX    TMP DP  RH WIND       PRES   REMARKS
LITTLE ROCK    CLEAR     57  48  72 CALM      30.04R
N LITTLE ROCK    N/A     59  48  65 SW3       30.04
JACKSONVILLE   CLEAR     50  48  93 CALM      30.03R FOG
SEARCY         CLEAR     50  49  96 CALM      30.05S
HOT SPRINGS    CLEAR     56  46  69 E6        30.03R
RUSSELLVILLE   CLEAR     52  51  97 CALM      30.01F
CLINTON        FAIR      46  46 100 CALM      30.06S FOG
$$

ARZ036-031000-
EAST ARKANSAS

CITY           SKY/WX    TMP DP  RH WIND       PRES   REMARKS
WEST MEMPHIS   CLEAR     57  51  80 SE3       30.04R
$$

ARZ050-053-066-070-073-031000-
SOUTHWEST ARKANSAS

CITY           SKY/WX    TMP DP  RH WIND       PRES   REMARKS
ARKADELPHIA    FAIR      55  54  97 CALM      30.03S
CAMDEN         MOCLDY    54  50  87 CALM      30.02S
TEXARKANA      CLEAR     65  54  67 S8        30.00F
EL DORADO      CLEAR     56  52  86 CALM      30.02S
DE QUEEN       CLEAR     55  53  93 CALM      29.98S
$$

ARZ056-057-069-031000-
SOUTHEAST ARKANSAS

CITY           SKY/WX    TMP DP  RH WIND       PRES   REMARKS
PINE BLUFF     CLEAR     55  52  89 CALM      30.03S
STUTTGART      CLEAR     59  48  67 CALM      30.04S
MONTICELLO     CLEAR     61  43  51 S6        30.03S

$$




USA.gov is the U.S. government's official web portal to all federal, state and local government web resources and services.